Wind_Speed
4 4 5 6 7 8 10 11 13 14 16 18 19 19 18 18 17 17 16 15 14 12 12 12 12 13 15 16 18 20 22 25 27 28 29 30 30 30 29 29 30 30 28
3 4 5 6 7 8 10 11 13 15 16 18 19 19 19 19 18 18 17 16 13 12 11 11 11 12 13 14 16 18 20 22 25 27 28 29 31 31 31 31 30 30 29
4 4 5 6 7 8 10 12 13 15 17 18 19 19 19 19 18 18 17 16 14 12 11 10 10 10 11 12 14 15 17 20 23 26 27 28 31 32 32 31 31 30 30
4 4 5 5 7 8 10 12 14 15 16 18 19 19 20 20 19 19 18 17 15 13 11 9 9 9 9 10 12 14 16 18 21 23 25 26 29 32 32 32 31 31 31
3 4 5 6 7 8 10 12 13 15 16 17 18 19 20 20 20 19 18 17 16 14 12 10 8 8 8 9 10 12 14 16 18 21 23 25 27 29 31 31 30 31 31
4 4 5 6 7 9 10 12 13 15 16 17 18 19 19 20 20 19 19 18 16 15 12 10 9 8 7 7 8 9 11 13 16 18 21 23 25 26 28 30 30 30 31
4 5 5 6 7 9 10 12 13 14 16 17 18 18 19 19 20 20 19 18 17 15 13 11 9 8 7 6 6 8 9 11 13 16 19 20 22 24 26 28 29 30 30
5 5 6 6 7 9 10 11 13 14 16 17 17 18 18 19 19 20 19 19 17 16 15 12 10 8 7 6 6 6 8 10 12 14 16 18 19 22 23 25 27 28 29
6 6 6 6 7 8 10 11 13 14 15 16 17 17 18 18 19 19 19 19 18 16 15 13 11 9 7 6 5 5 6 8 10 12 14 15 17 19 21 23 25 26 28
7 7 6 6 7 8 10 11 12 13 14 15 16 17 18 18 18 18 18 18 18 16 15 14 12 10 8 7 6 4 4 6 8 10 12 14 15 17 19 21 23 25 27
8 7 7 7 7 8 10 11 12 13 14 15 16 16 17 17 18 18 18 18 17 16 16 15 13 11 9 8 7 4 3 4 5 7 9 11 13 15 17 19 22 23 25
9 8 7 7 8 9 10 11 12 12 13 14 15 16 16 17 17 17 17 17 17 16 15 15 13 12 10 9 7 6 3 3 4 6 7 9 11 12 14 17 19 21 22
10 9 8 8 8 9 10 11 11 12 13 14 14 15 16 16 16 16 17 17 17 16 15 14 14 13 11 10 8 6 5 3 4 5 6 8 9 10 12 15 16 18 20
11 10 9 9 9 9 10 10 11 12 13 13 14 15 15 16 16 16 16 16 16 15 15 14 13 13 12 11 10 8 6 4 4 4 5 7 8 10 11 13 15 16 18
12 11 10 10 9 9 10 10 11 12 12 13 14 14 15 15 15 15 15 15 15 15 14 13 13 12 12 11 10 9 8 6 4 4 5 6 8 9 10 12 14 15 17
13 12 12 11 11 10 10 11 11 11 12 13 13 14 15 15 15 15 15 15 15 15 14 13 13 12 12 11 10 10 9 7 6 4 4 5 7 9 10 11 13 14 16
14 13 13 12 12 12 11 11 11 12 12 12 13 14 15 15 14 14 15 15 14 14 14 13 13 13 12 11 10 9 9 8 8 6 5 5 6 7 9 10 11 12 14
14 15 14 14 13 13 13 12 12 12 12 12 13 14 15 15 14 14 14 14 14 14 14 13 13 12 12 11 10 9 9 9 8 7 6 6 6 7 8 9 11 12 13
16 16 15 15 15 15 14 14 13 13 13 13 13 14 14 15 15 14 13 13 13 13 13 13 13 12 12 11 11 10 9 9 9 8 8 8 7 7 8 9 10 12 13
17 17 17 16 16 16 16 15 15 14 14 14 14 14 14 14 14 14 14 13 13 13 13 13 13 13 12 12 11 11 11 10 10 9 9 9 8 8 8 9 10 11 12
19 19 19 18 18 18 17 17 16 16 16 15 15 15 15 15 15 15 14 14 14 13 13 13 13 13 13 13 13 12 12 12 12 11 10 10 10 10 10 10 11 12 12
21 21 21 20 20 20 19 19 19 18 17 17 17 16 16 16 15 15 15 15 15 15 14 14 14 14 14 14 14 13 13 13 13 12 11 11 11 11 11 11 12 12 13
23 23 23 23 22 22 22 21 21 20 20 19 19 18 18 17 17 16 16 16 16 16 16 16 16 16 15 15 15 15 15 14 14 14 13 13 13 13 13 13 14 14 14
26 25 25 25 25 24 24 24 23 22 22 22 21 20 20 19 19 18 18 18 18 17 17 17 17 17 17 17 17 17 16 16 16 16 15 15 15 15 15 15 15 15 16
28 28 28 27 27 27 26 26 25 25 24 24 23 23 22 21 21 20 20 19 19 19 19 19 19 19 19 19 19 19 19 18 18 18 17 17 17 18 18 18 18 18 18
31 30 30 29 29 29 28 28 27 27 26 26 25 25 24 24 23 23 22 22 21 21 21 21 21 21 21 21 21 21 21 20 20 20 20 20 20 20 20 20 20 21 21
Wind_Direction
316 322 331 341 345 349 351 353 355 357 358 358 357 356 354 352 349 344 339 333 324 311 298 290 280 270 262 257 251 246 242 239 236 234 231 231 229 227 226 225 225 224 224
306 312 324 335 342 349 353 355 356 357 358 358 358 358 356 355 355 353 350 344 335 323 309 297 287 276 265 258 252 247 244 240 236 234 232 229 228 226 227 226 226 226 226
291 302 317 330 339 347 352 355 356 357 357 358 359 358 358 358 357 356 354 350 344 334 322 309 296 284 270 260 253 250 246 240 235 232 230 229 227 226 227 226 226 226 227
277 295 314 328 338 345 351 355 356 356 356 357 359 359 360 360 359 357 356 355 351 345 336 322 308 293 279 269 259 250 246 239 233 229 228 229 227 227 226 226 225 226 227
265 292 311 323 333 342 349 352 355 356 357 358 359 360 1 1 0 359 357 356 354 349 342 335 321 306 291 278 264 252 246 238 232 229 227 229 228 228 228 226 226 227 228
264 288 305 316 330 341 347 350 352 354 356 358 358 360 1 2 2 1 0 359 357 354 349 342 334 320 305 288 270 255 245 237 232 229 228 230 230 230 229 228 228 229 229
265 284 296 308 326 339 345 348 351 352 354 357 358 359 1 2 3 3 2 1 1 360 356 348 342 335 322 302 281 260 245 236 233 230 228 228 229 231 230 230 230 231 230
264 279 288 303 323 335 342 346 349 350 353 356 358 359 0 1 3 4 5 4 3 3 0 355 351 342 334 318 299 272 250 239 234 233 230 229 230 232 231 230 230 232 232
265 275 284 301 320 332 340 344 346 349 351 354 357 359 360 1 2 3 4 5 5 4 4 4 2 356 351 340 320 291 260 241 234 233 231 228 229 232 232 230 231 232 231
263 272 281 297 316 329 337 341 344 346 349 353 356 358 359 0 2 3 4 5 7 7 7 7 5 4 0 352 342 315 277 248 237 234 232 230 230 232 232 231 232 233 233
258 266 276 292 309 323 330 336 340 343 346 350 354 356 358 360 1 3 4 6 8 9 9 9 10 7 4 1 357 342 296 258 244 236 233 231 229 230 232 232 232 234 233
256 262 274 288 302 315 324 331 336 340 343 347 350 353 356 358 360 2 3 5 7 9 9 10 10 9 7 4 2 355 334 280 257 243 237 233 232 232 232 231 231 234 233
256 261 272 285 297 309 320 327 334 338 342 345 348 351 353 355 357 360 2 4 6 7 9 11 12 11 11 7 1 354 340 310 277 253 244 239 236 235 234 232 231 232 232
256 261 270 279 291 303 314 323 330 336 340 343 346 349 352 354 355 357 359 1 4 5 6 7 8 10 10 10 8 1 349 329 297 270 255 248 241 238 237 236 234 234 235
255 259 266 275 286 297 308 316 324 331 336 341 344 346 348 351 353 355 357 358 360 1 1 2 1 2 5 7 8 5 1 352 327 299 272 257 247 243 244 239 237 237 238
256 258 263 272 282 291 301 310 318 324 330 336 341 345 346 347 349 352 354 356 357 359 359 358 357 357 358 360 2 3 1 356 350 332 303 277 262 255 253 246 243 240 239
257 257 262 270 278 286 295 302 310 318 323 329 334 339 343 343 344 346 349 352 355 356 357 356 356 356 356 357 358 359 357 354 351 339 322 303 283 270 261 254 250 246 242
257 258 261 267 274 281 288 294 301 309 315 321 326 331 336 339 340 341 343 346 350 353 355 356 355 355 355 353 352 351 351 349 346 341 327 313 298 280 270 261 255 252 250
259 259 261 265 271 277 283 288 293 300 307 313 318 323 329 333 335 336 337 339 342 346 349 350 351 350 349 349 347 344 342 341 338 332 326 316 301 288 274 268 263 260 258
260 261 262 265 269 273 278 283 288 293 299 305 310 315 320 325 328 329 329 330 334 337 340 343 344 343 342 341 340 339 335 332 329 325 321 317 307 298 285 276 271 269 267
260 261 262 264 267 270 274 278 283 287 292 297 302 307 311 316 320 322 322 322 323 326 329 332 335 336 336 335 334 331 329 326 323 318 314 313 307 300 295 289 281 275 272
261 261 262 264 265 268 271 274 278 282 287 291 294 299 303 307 311 314 315 315 315 316 319 322 324 326 328 328 327 325 324 321 319 314 308 302 301 298 293 289 284 282 278
261 261 262 263 264 266 269 272 275 278 282 285 288 292 295 299 302 305 308 309 310 311 312 313 316 317 319 320 320 318 315 314 313 311 306 301 297 295 293 289 284 281 278
261 261 261 262 263 265 267 269 272 275 278 281 284 287 289 291 294 297 301 304 305 305 307 308 309 311 312 313 313 313 311 308 306 304 301 299 296 294 292 290 287 285 282
261 261 261 262 262 264 266 268 270 272 274 277 280 282 284 286 289 291 294 297 299 300 301 302 304 305 307 308 308 309 307 305 303 300 298 295 294 291 289 287 285 284 282
261 261 262 262 262 263 264 265 267 269 271 274 276 278 280 282 284 287 289 291 294 295 297 297 299 300 301 303 304 304 304 302 299 297 295 293 292 291 289 287 286 284 283
Height
5849 5848 5847 5845 5844 5841 5838 5835 5832 5829 5825 5820 5816 5812 5807 5803 5798 5794 5790 5786 5783 5781 5779 5778 5777 5777 5777 5777 5779 5780 5782 5785 5787 5791 5795 5799 5802 5807 5811 5815 5818 5822 5826
5848 5847 5846 5845 5843 5840 5838 5835 5831 5828 5824 5819 5815 5810 5806 5801 5797 5793 5788 5784 5781 5778 5776 5775 5774 5773 5773 5773 5774 5775 5777 5779 5781 5785 5788 5793 5797 5801 5805 5809 5813 5817 5821
5847 5846 5845 5844 5842 5840 5837 5834 5830 5827 5823 5819 5814 5810 5805 5800 5796 5791 5787 5783 5779 5776 5774 5772 5771 5770 5769 5769 5770 5770 5772 5773 5776 5779 5783 5787 5791 5795 5799 5803 5807 5811 5815
5846 5845 5844 5843 5841 5839 5836 5833 5829 5826 5822 5818 5814 5809 5804 5799 5795 5790 5786 5782 5778 5774 5772 5770 5768 5767 5766 5765 5766 5766 5767 5768 5771 5774 5777 5781 5785 5789 5793 5797 5801 5805 5809
5845 5844 5843 5842 5840 5838 5835 5832 5828 5825 5821 5817 5813 5808 5804 5799 5794 5789 5785 5781 5777 5773 5770 5768 5766 5764 5763 5762 5762 5762 5763 5764 5766 5769 5772 5776 5779 5783 5787 5791 5795 5799 5803
5843 5843 5842 5841 5839 5836 5834 5831 5828 5824 5820 5816 5812 5808 5803 5798 5794 5789 5784 5780 5776 5772 5769 5766 5764 5762 5760 5759 5759 5759 5759 5761 5762 5765 5768 5771 5775 5778 5781 5785 5789 5793 5796
5842 5841 5841 5839 5838 5835 5833 5830 5827 5823 5820 5816 5811 5807 5803 5798 5793 5789 5784 5779 5775 5771 5768 5765 5762 5760 5759 5757 5757 5756 5757 5758 5760 5762 5764 5767 5770 5773 5776 5780 5783 5787 5790
5840 5840 5839 5838 5836 5834 5831 5829 5826 5822 5819 5815 5811 5806 5802 5798 5793 5788 5784 5779 5775 5771 5767 5764 5761 5759 5757 5756 5755 5754 5755 5755 5757 5759 5761 5763 5766 5769 5772 5775 5778 5781 5785
5838 5838 5837 5836 5834 5832 5830 5828 5825 5821 5818 5814 5810 5806 5802 5797 5793 5788 5784 5779 5775 5771 5767 5764 5761 5758 5757 5755 5754 5753 5753 5753 5754 5756 5758 5760 5762 5764 5767 5770 5773 5776 5779
5837 5836 5835 5834 5833 5831 5829 5826 5824 5820 5817 5813 5809 5805 5801 5797 5793 5788 5784 5780 5775 5771 5767 5764 5761 5758 5756 5754 5753 5752 5751 5752 5752 5753 5755 5757 5758 5761 5763 5765 5768 5770 5773
5835 5834 5833 5832 5831 5829 5827 5825 5822 5819 5816 5812 5809 5805 5801 5797 5793 5788 5784 5780 5776 5772 5768 5764 5761 5758 5756 5754 5752 5751 5750 5750 5751 5751 5752 5754 5755 5757 5759 5760 5763 5765 5767
5832 5832 5831 5830 5829 5827 5825 5823 5821 5818 5815 5811 5808 5804 5800 5796 5792 5788 5784 5780 5776 5772 5768 5765 5762 5759 5756 5754 5752 5750 5749 5749 5749 5750 5750 5751 5752 5754 5755 5756 5758 5760 5763
5830 5830 5829 5828 5827 5825 5824 5821 5819 5816 5813 5810 5807 5803 5800 5796 5792 5788 5784 5780 5776 5772 5769 5765 5762 5759 5756 5754 5752 5750 5749 5748 5748 5748 5748 5749 5750 5751 5752 5753 5755 5756 5758
5827 5827 5826 5826 5825 5823 5822 5820 5817 5815 5812 5809 5806 5802 5799 5795 5791 5788 5784 5780 5776 5773 5769 5766 5763 5760 5757 5754 5752 5750 5749 5748 5747 5747 5747 5747 5747 5748 5749 5750 5751 5753 5755
5824 5824 5824 5823 5822 5821 5819 5817 5815 5813 5810 5807 5804 5801 5798 5794 5791 5787 5784 5780 5776 5773 5769 5766 5763 5760 5758 5755 5753 5750 5749 5747 5746 5745 5745 5745 5745 5746 5747 5747 5748 5749 5751
5821 5821 5821 5820 5819 5818 5817 5815 5813 5811 5808 5806 5803 5800 5796 5793 5790 5786 5783 5780 5776 5773 5770 5766 5763 5760 5758 5755 5753 5751 5749 5747 5746 5744 5744 5743 5743 5744 5744 5744 5745 5746 5747
5817 5817 5817 5817 5816 5815 5814 5812 5811 5808 5806 5804 5801 5798 5795 5792 5789 5785 5782 5779 5776 5773 5769 5766 5763 5761 5758 5756 5753 5751 5749 5747 5745 5744 5743 5742 5742 5742 5742 5742 5742 5743 5744
5813 5813 5813 5813 5812 5812 5811 5809 5808 5806 5804 5801 5799 5796 5793 5790 5787 5784 5781 5778 5775 5772 5769 5766 5763 5761 5758 5755 5753 5751 5749 5747 5745 5743 5742 5741 5740 5739 5739 5739 5740 5740 5741
5808 5808 5809 5808 5808 5807 5807 5806 5804 5803 5801 5799 5796 5794 5791 5788 5785 5782 5779 5777 5774 5771 5768 5766 5763 5760 5758 5755 5753 5750 5748 5746 5744 5743 5741 5739 5738 5737 5737 5737 5737 5737 5737
5803 5803 5804 5804 5803 5803 5802 5801 5800 5799 5797 5795 5793 5791 5788 5786 5783 5780 5778 5775 5772 5770 5767 5765 5762 5759 5757 5754 5752 5750 5747 5745 5743 5741 5740 5738 5737 5736 5735 5734 5734 5733 5733
5798 5798 5798 5798 5798 5798 5797 5796 5796 5794 5793 5791 5790 5788 5785 5783 5780 5778 5775 5773 5770 5768 5766 5763 5761 5758 5755 5753 5751 5748 5746 5743 5741 5739 5738 5736 5735 5733 5732 5731 5731 5730 5729
5792 5792 5792 5792 5792 5792 5792 5791 5790 5789 5788 5787 5785 5783 5782 5779 5777 5775 5772 5770 5768 5765 5763 5761 5759 5756 5753 5751 5748 5746 5744 5741 5739 5737 5735 5734 5732 5731 5729 5728 5727 5726 5725
5785 5785 5785 5785 5786 5786 5785 5785 5784 5784 5783 5781 5780 5779 5777 5775 5773 5771 5769 5767 5764 5762 5760 5758 5755 5753 5751 5748 5746 5744 5741 5739 5737 5735 5733 5731 5730 5728 5726 5725 5724 5722 5721
5777 5778 5778 5778 5778 5778 5778 5778 5778 5777 5776 5775 5774 5773 5771 5770 5768 5766 5764 5762 5760 5758 5756 5754 5751 5749 5747 5745 5743 5740 5738 5735 5733 5731 5729 5727 5726 5724 5723 5721 5720 5718 5717
5769 5769 5770 5770 5770 5770 5770 5770 5770 5770 5769 5768 5767 5766 5765 5764 5762 5761 5759 5757 5755 5753 5751 5749 5747 5745 5743 5740 5738 5736 5733 5731 5729 5727 5725 5723 5721 5720 5718 5716 5715 5714 5712
5759 5760 5760 5761 5761 5761 5762 5762 5762 5761 5761 5760 5760 5759 5758 5757 5755 5754 5753 5751 5749 5748 5746 5744 5742 5739 5737 5735 5733 5730 5728 5726 5724 5722 5720 5718 5716 5714 5713 5711 5709 5708 5707